Weather History for North Platte, NE

Change the Weather History Date:

Tuesday, November 20, 2012

  Actual Average Record
Temperature  
Mean Temperature 45 °F 33 °F  
Max Temperature 71 °F 48 °F 79 °F (1897)
Min Temperature 18 °F 19 °F -2 °F (2000)
Degree Days  
Heating Degree Days 20 32  
Month to date heating degree days 497 540  
Since 1 July heating degree days 1198 1209  
Cooling Degree Days 0 0  
Month to date cooling degree days 0 0  
Year to date cooling degree days 1245 768  
Moisture  
Dew Point 24 °F    
Average Humidity 54    
Maximum Humidity 88    
Minimum Humidity 19    
Precipitation  
Precipitation 0.00 in 0.01 in 0.94 in (1899)
Month to date precipitation T 0.47  
Year to date precipitation 9.62 19.65  
Snow  
Snow 0.00 in 0.20 in 6.50 in (1930)
Month to date snowfall T 2.5  
Since 1 July snowfall 2.2 4.8  
Since 1 September snowfall 2.2 4.8  
Snow Depth 0.00 in    
Sea Level Pressure  
Sea Level Pressure 30.16 in    
Wind  
Wind Speed 6 mph (SSW)    
Max Wind Speed 22 mph    
Max Gust Speed 29 mph    
Visibility 10 miles    
Events      
T = Trace of Precipitation, MM = Missing Value Source: NWS Daily Summary

Daily Weather History Graph

Daily Weather History Graph

Search for Another Location

Airport:

Trip Planner

Search our weather history database for the weather conditions in past years. The results will help you decide how hot, cold, wet, or windy it might be!

Date:

Astronomy

Nov. 20, 2012 Rise Set
Actual Time 7:36 AM CST 5:19 PM CST
Civil Twilight 7:07 AM CST 5:49 PM CST
Nautical Twilight 6:33 AM CST 6:23 PM CST
Astronomical Twilight 6:00 AM CST 6:55 PM CST
Moon 1:10 PM CST (11/20) No Moon Set
Length of Visible Light 10h 42m
Length of Day
9h 42m
First Quarter, 51% of the Moon is Illuminated
Nov 20
First Quarter
Nov 28
Full
Dec 6
Last Quarter
Dec 13
New
Dec 19
First Quarter

Hourly Weather History & Observations

Time (CST) Temp. Windchill Dew Point Humidity Pressure Visibility Wind Dir Wind Speed Gust Speed Precip Events Conditions
12:53 AM 24.1 °F 19.7 °F 19.9 °F 84% 30.24 in 10.0 mi NW 3.5 mph - N/A   Clear
1:53 AM 25.0 °F - 21.0 °F 85% 30.22 in 10.0 mi Calm Calm - N/A   Clear
2:53 AM 23.0 °F - 19.0 °F 85% 30.23 in 10.0 mi Calm Calm - N/A   Clear
3:53 AM 21.9 °F 17.2 °F 18.0 °F 85% 30.23 in 10.0 mi NW 3.5 mph - N/A   Clear
4:53 AM 21.9 °F - 18.0 °F 85% 30.22 in 10.0 mi Calm Calm - N/A   Clear
5:53 AM 21.9 °F - 18.0 °F 85% 30.25 in 10.0 mi Calm Calm - N/A   Clear
6:53 AM 19.9 °F - 16.0 °F 85% 30.25 in 10.0 mi Calm Calm - N/A   Clear
7:53 AM 19.9 °F - 16.0 °F 85% 30.29 in 10.0 mi Calm Calm - N/A   Clear
8:53 AM 30.0 °F - 24.1 °F 79% 30.27 in 10.0 mi Calm Calm - N/A   Clear
9:53 AM 39.0 °F - 28.9 °F 67% 30.26 in 10.0 mi Calm Calm - N/A   Clear
10:53 AM 46.9 °F - 30.0 °F 52% 30.23 in 10.0 mi Calm Calm - N/A   Clear
11:53 AM 63.0 °F - 30.0 °F 29% 30.18 in 10.0 mi SSW 11.5 mph - N/A   Clear
12:53 PM 68.0 °F - 28.4 °F 23% 30.13 in 10.0 mi SW 11.5 mph - N/A   Clear
1:53 PM 70.0 °F - 27.0 °F 20% 30.10 in 10.0 mi SSW 13.8 mph 21.9 mph N/A   Clear
2:53 PM 71.1 °F - 26.1 °F 19% 30.08 in 10.0 mi SSW 18.4 mph 25.3 mph N/A   Clear
3:53 PM 70.0 °F - 28.9 °F 22% 30.07 in 10.0 mi South 10.4 mph 21.9 mph N/A   Clear
4:53 PM 64.9 °F - 28.0 °F 25% 30.09 in 10.0 mi SSW 8.1 mph - N/A   Clear
5:53 PM 53.1 °F - 26.1 °F 35% 30.12 in 10.0 mi SSE 6.9 mph - N/A   Clear
6:53 PM 50.0 °F - 25.0 °F 38% 30.13 in 10.0 mi South 8.1 mph - N/A   Clear
7:53 PM 53.1 °F - 27.0 °F 37% 30.12 in 10.0 mi South 8.1 mph - N/A   Clear
8:53 PM 52.0 °F - 27.0 °F 38% 30.10 in 10.0 mi South 9.2 mph - N/A   Clear
9:53 PM 50.0 °F - 27.0 °F 41% 30.09 in 10.0 mi South 5.8 mph - N/A   Clear
10:53 PM 48.0 °F - 24.1 °F 39% 30.07 in 10.0 mi South 8.1 mph - N/A   Clear
11:53 PM 46.9 °F - 23.0 °F 39% 30.04 in 10.0 mi Variable 4.6 mph - N/A   Clear